www.pogodaiklimat.ru

Погода и климат >> Архив погоды >> Япония >> Мисима


ПОГОДА в Мисиме

  • Прогноз погоды в Мисиме
  • Монитор погоды в Мисиме

АРХИВ ПОГОДЫ в Мисиме

Время (UTC), дата Ветер
(напр.,м/с)
 
Видим.   Явления Облачность Т
(С)
Тd
(С)
f
(%)
Тe
(С)
Тes
(С)
Комфортность P
(гПа)
Po
(гПа)
Тmin
(С)
Tmax
(С)
R
(мм)
R24
(мм)
S
(см)
22 8.09 ЮЗ 2 20 км в посл. час дождь н/о +27.4 +23.6 80 +37 +37 очень
душно
1005.5 1003.0
23 8.09 С 2 20 км н/о +26.7 +25.1 91 +38 +38 очень
душно
1006.5 1004.0
00 9.09 С 2 20 км в посл. час дождь н/о +28.9 +25.1 80 +42 +42 опасность
перегрева
1006.5 1004.0 +25.5 83
01 9.09 СВ 2 20 км н/о +30.9 +25.7 74 +46 +46 опасность
перегрева
1006.9 1004.5
02 9.09 Ю 3 20 км н/о +32.6 +25.2 65 +47 +47 опасность
перегрева
1007.0 1004.6
03 9.09 З 4 20 км н/о +32.5 +25.1 65 +46 +46 опасность
перегрева
1007.5 1005.1
04 9.09 З 7 20 км н/о +32.1 +24.7 65 +45 +45 опасность
перегрева
1007.7 1005.3
05 9.09 З 4 20 км н/о +32.1 +25.0 66 +46 +46 опасность
перегрева
1007.8 1005.4
06 9.09 З 4 20 км н/о +32.0 +24.9 66 +45 +45 опасность
перегрева
1008.0 1005.6
07 9.09 З 3 20 км н/о +32.1 +25.0 66 +46 +46 опасность
перегрева
1008.0 1005.6
08 9.09 З 3 20 км н/о +31.4 +24.5 67 +44 +44 опасность
перегрева
1008.8 1006.4
09 9.09 СЗ 3 20 км н/о +30.3 +24.7 72 +43 +43 опасность
перегрева
1009.6 1007.1
10 9.09 С 3 19 км н/о +29.3 +25.3 79 +43 +43 опасность
перегрева
1010.6 1008.1
11 9.09 С 2 20 км н/о +29.1 +25.3 80 +42 +42 опасность
перегрева
1011.6 1009.1
12 9.09 С 2 20 км н/о +28.4 +25.4 84 +42 +42 опасность
перегрева
1011.9 1009.4 +33.6
16 9.09 ЮВ 2 17 км н/о +26.5 +25.1 92 +38 +38 очень
душно
1012.4 1009.9
17 9.09 ЮВ 2 20 км н/о +26.0 +24.8 93 +37 +37 очень
душно
1012.4 1009.9
18 9.09 ЮВ 1 16 км н/о +25.8 +24.8 94 +37 +37 очень
душно
1012.5 1010.0
19 9.09 В 1 17 км н/о +25.4 +24.5 95 +36 +36 очень
душно
1012.9 1010.4
21 9.09 В 1 18 км н/о +25.6 +24.6 94 +36 +36 очень
душно
1013.6 1011.1
23 9.09 ЮВ 1 20 км н/о +28.7 +25.5 83 +42 +42 опасность
перегрева
1014.1 1011.6
00 10.09 СЗ 1 20 км н/о +29.8 +25.3 77 +44 +44 опасность
перегрева
1014.0 1011.5 +25.2
01 10.09 ЮЗ 2 20 км н/о +31.4 +25.5 71 +46 +46 опасность
перегрева
1013.5 1011.0
02 10.09 З 4 20 км н/о +32.1 +25.7 69 +47 +47 опасность
перегрева
1013.3 1010.8
04 10.09 З 3 20 км н/о +32.7 +26.3 69 +49 +49 опасность
перегрева
1012.2 1009.8
05 10.09 З 3 20 км н/о +31.4 +25.0 69 +45 +45 опасность
перегрева
1012.0 1009.5
06 10.09 З 2 20 км н/о +32.0 +25.8 70 +47 +47 опасность
перегрева
1011.7 1009.3
07 10.09 З 3 20 км н/о +31.6 +25.2 69 +46 +46 опасность
перегрева
1012.1 1009.6
08 10.09 З 2 20 км н/о +30.6 +25.7 75 +45 +45 опасность
перегрева
1012.3 1009.8
09 10.09 СЗ 2 20 км н/о +29.4 +25.4 79 +43 +43 опасность
перегрева
1012.8 1010.3
10 10.09 СЗ 2 20 км слаб. дождь н/о +29.4 +24.3 74 +41 +41 опасность
перегрева
1013.8 1011.3
11 10.09 ЮЗ 1 20 км слаб. дождь н/о +28.4 +25.2 83 +41 +41 опасность
перегрева
1014.5 1012.0
12 10.09 ЮВ 2 20 км в посл. час дождь н/о +28.0 +26.2 90 +42 +42 опасность
перегрева
1014.8 1012.3 +33.3 0.5
13 10.09 СЗ 1 20 км н/о +27.6 +26.0 91 +41 +41 опасность
перегрева
1014.9 1012.4
15 10.09 ЮВ 2 20 км н/о +26.6 +25.2 92 +38 +38 очень
душно
1015.0 1012.5
16 10.09 ЮВ 2 20 км н/о +26.4 +25.2 93 +38 +38 очень
душно
1014.4 1011.9
17 10.09 СВ 1 19 км н/о +26.3 +25.1 93 +38 +38 очень
душно
1014.0 1011.5
18 10.09 С 1 15 км н/о +26.0 +25.0 94 +37 +37 очень
душно
1014.2 1011.7
19 10.09 В 1 12 км н/о +25.8 +24.8 94 +37 +37 очень
душно
1014.2 1011.7
20 10.09 В 1 17 км н/о +26.0 +24.6 92 +37 +37 очень
душно
1014.3 1011.8
21 10.09 В 1 16 км н/о +25.8 +24.6 93 +36 +36 очень
душно
1014.3 1011.8
22 10.09 В 1 18 км слаб. дождь н/о +26.9 +24.9 89 +39 +39 очень
душно
1014.2 1011.7
23 10.09 ЮВ 1 17 км слаб. дождь н/о +27.2 +24.9 87 +39 +39 очень
душно
1014.3 1011.8
00 11.09 ЮЗ 1 17 км в посл. час дождь н/о +27.8 +24.9 84 +40 +40 очень
душно
1014.2 1011.7 +25.5 0.0
01 11.09 ЮЗ 2 19 км в посл. час дождь н/о +30.0 +24.9 74 +43 +43 опасность
перегрева
1013.5 1011.0
02 11.09 З 4 20 км н/о +29.6 +25.4 78 +43 +43 опасность
перегрева
1013.0 1010.5
03 11.09 З 4 20 км {дождь} н/о +30.4 +25.2 74 +44 +44 опасность
перегрева
1012.3 1009.8
04 11.09 З 4 20 км н/о +30.2 +25.1 74 +44 +44 опасность
перегрева
1011.2 1008.7
05 11.09 З 4 20 км н/о +30.3 +25.4 75 +44 +44 опасность
перегрева
1010.1 1007.6
06 11.09 З 4 18 км слаб. дождь н/о +28.9 +25.7 83 +43 +43 опасность
перегрева
1010.0 1007.5 0.0
07 11.09 З 3 20 км в посл. час дождь н/о +29.2 +25.2 79 +42 +42 опасность
перегрева
1009.7 1007.2
08 11.09 ЮЗ 4 20 км в посл. час дождь н/о +29.4 +24.7 76 +42 +42 опасность
перегрева
1009.2 1006.7
09 11.09 ЮЗ 2 20 км {дождь} н/о +29.2 +25.0 78 +42 +42 опасность
перегрева
1009.8 1007.3
10 11.09 СЗ 2 20 км слаб. дождь н/о +28.9 +25.3 81 +42 +42 опасность
перегрева
1010.1 1007.6
11 11.09 СВ 2 20 км в посл. час дождь н/о +28.5 +25.5 84 +42 +42 опасность
перегрева
1010.0 1007.5
12 11.09 С 2 20 км {дождь} н/о +28.2 +25.6 86 +42 +42 опасность
перегрева
1010.1 1007.6 +31.2 0.0
13 11.09 С 2 18 км н/о +27.8 +25.6 88 +41 +41 опасность
перегрева
1010.0 1007.5
14 11.09 С 2 17 км н/о +27.4 +25.4 89 +40 +40 очень
душно
1009.4 1006.9
15 11.09 ЮВ 2 14 км н/о +26.7 +25.1 91 +38 +38 очень
душно
1009.2 1006.7
16 11.09 ЮВ 1 13 км н/о +26.6 +25.0 91 +38 +38 очень
душно
1009.2 1006.7
17 11.09 СВ 1 15 км слаб. дождь н/о +26.7 +25.1 91 +38 +38 очень
душно
1008.5 1006.0
18 11.09 В 1 14 км в посл. час дождь н/о +26.8 +25.2 91 +39 +39 очень
душно
1008.8 1006.3 0.0
19 11.09 СВ 1 18 км н/о +26.7 +24.6 88 +38 +38 очень
душно
1008.6 1006.1
20 11.09 В 2 16 км н/о +26.3 +24.5 90 +37 +37 очень
душно
1009.3 1006.8
21 11.09 СВ 1 20 км слаб. дождь н/о +26.3 +23.8 86 +36 +36 очень
душно
1010.3 1007.8
23 11.09 В 6 20 км н/о +26.9 +20.3 67 +33 +33 очень
душно
1011.6 1009.1
00 12.09 В 5 20 км {дождь} н/о +27.1 +18.9 61 +32 +32 очень
душно
1012.2 1009.7 +26.1 0.0
01 12.09 В 4 20 км в посл. час дождь н/о +26.9 +19.3 63 +32 +32 очень
душно
1012.7 1010.2
02 12.09 В 3 20 км в посл. час дождь н/о +28.6 +20.9 63 +36 +36 очень
душно
1012.7 1010.2
03 12.09 В 4 20 км {дождь} н/о +28.9 +20.4 60 +36 +36 очень
душно
1012.6 1010.1
04 12.09 В 5 20 км н/о +27.8 +20.4 64 +34 +34 очень
душно
1012.2 1009.7
05 12.09 В 4 20 км н/о +26.9 +20.7 69 +34 +34 очень
душно
1012.3 1009.8
06 12.09 В 4 20 км {дождь} н/о +25.8 +20.2 71 +32 +32 очень
душно
1012.5 1010.0 0.0
07 12.09 В 4 20 км н/о +25.4 +19.5 70 +31 +31 очень
душно
1012.8 1010.3
08 12.09 В 4 20 км н/о +25.0 +18.9 69 +30 +30 душно 1013.2 1010.7
09 12.09 В 3 20 км н/о +24.6 +18.1 67 +29 +29 душно 1013.6 1011.1
10 12.09 В 3 20 км н/о +24.4 +17.9 67 +29 +29 душно 1014.5 1012.0
11 12.09 СВ 2 20 км н/о +24.3 +17.6 66 +28 +28 душно 1015.1 1012.6
12 12.09 СВ 2 20 км н/о +24.2 +17.7 67 +28 +28 душно 1015.3 1012.8 +29.4 0.0
13 12.09 СВ 2 20 км н/о +24.2 +17.5 66 +28 +28 душно 1015.4 1012.9
15 12.09 С 3 20 км н/о +23.6 +17.1 67 +27 +27 жарко 1014.8 1012.3
16 12.09 С 2 20 км н/о +23.4 +16.5 65 +28 +28 душно 1014.8 1012.3
18 12.09 СВ 3 20 км н/о +23.7 +16.3 63 +27 +27 жарко 1014.3 1011.8
19 12.09 С 3 20 км н/о +23.2 +16.7 67 +28 +28 душно 1014.7 1012.2
20 12.09 СВ 3 20 км н/о +23.1 +15.7 63 +27 +27 душно 1014.6 1012.1
21 12.09 СВ 3 20 км н/о +22.9 +15.5 63 +27 +27 душно 1015.0 1012.5
22 12.09 СВ 3 20 км н/о +23.2 +15.8 63 +28 +28 душно 1015.7 1013.2
23 12.09 СВ 3 20 км н/о +24.0 +15.5 59 +27 +27 жарко 1016.3 1013.8
01 13.09 СВ 4 20 км н/о +24.5 +16.0 59 +28 +28 душно 1016.3 1013.8
02 13.09 СВ 2 20 км н/о +25.2 +15.8 56 +28 +28 жарко 1016.1 1013.6
03 13.09 В 2 20 км н/о +24.8 +15.7 57 +28 +28 жарко 1015.7 1013.2
04 13.09 СВ 4 20 км н/о +24.9 +16.4 59 +28 +28 жарко 1015.3 1012.8
05 13.09 СВ 3 20 км н/о +24.3 +16.6 62 +28 +28 душно 1015.0 1012.5
06 13.09 С 3 20 км слаб. дождь н/о +24.8 +16.5 60 +28 +28 жарко 1015.1 1012.6 0.0
08 13.09 СВ 2 20 км н/о +23.7 +16.0 62 +27 +27 жарко 1015.9 1013.4
09 13.09 СВ 4 20 км {дождь} н/о +23.1 +15.9 64 +28 +28 душно 1016.2 1013.7
10 13.09 СВ 5 20 км н/о +22.9 +16.0 65 +27 +27 душно 1016.0 1013.5
11 13.09 СВ 3 20 км н/о +22.9 +16.2 66 +27 +27 душно 1016.7 1014.2
13 13.09 СВ 5 20 км н/о +23.1 +14.9 60 +27 +27 душно 1016.9 1014.4
14 13.09 СВ 3 20 км н/о +22.6 +14.5 60 +26 +26 жарко 1016.8 1014.3
15 13.09 ЮВ 2 20 км н/о +21.7 +13.6 60 +24 +24 комфорт 1016.0 1013.4
16 13.09 СВ 1 20 км н/о +20.4 +14.1 67 +24 +24 комфорт 1015.4 1012.8
17 13.09 В 1 20 км н/о +19.3 +14.4 73 +22 +22 комфорт 1015.3 1012.7
18 13.09 В 1 20 км н/о +19.2 +13.6 70 +22 +22 комфорт 1015.2 1012.6
19 13.09 В 1 20 км н/о +19.5 +14.3 72 +23 +23 комфорт 1015.2 1012.6
21 13.09 С 2 20 км н/о +19.0 +15.1 78 +21 +21 комфорт 1015.5 1012.9
00 14.09 ЮВ 3 20 км н/о +26.0 +17.1 58 +30 +30 душно 1014.4 1011.9 +18.7
01 14.09 В 3 20 км н/о +27.7 +18.4 57 +33 +33 очень
душно
1014.1 1011.6
02 14.09 В 4 20 км н/о +28.5 +19.2 57 +34 +34 очень
душно
1013.6 1011.1
03 14.09 В 4 20 км н/о +28.5 +19.4 58 +34 +34 очень
душно
1013.1 1010.6
04 14.09 ЮВ 4 20 км н/о +28.2 +19.4 59 +34 +34 очень
душно
1012.7 1010.2
05 14.09 В 4 20 км н/о +27.4 +19.2 61 +33 +33 очень
душно
1012.5 1010.0
06 14.09 В 3 20 км н/о +26.3 +19.0 64 +31 +31 душно 1012.2 1009.7
07 14.09 ЮВ 2 20 км н/о +26.2 +19.1 65 +31 +31 очень
душно
1012.5 1010.0
08 14.09 В 2 20 км н/о +26.3 +19.0 64 +31 +31 душно 1012.4 1009.9
09 14.09 ЮВ 2 20 км н/о +25.3 +18.7 67 +30 +30 душно 1012.5 1010.0
10 14.09 В 2 20 км н/о +24.7 +18.6 69 +29 +29 душно 1013.1 1010.6
11 14.09 ЮВ 1 20 км н/о +23.2 +18.7 76 +29 +29 душно 1013.4 1010.9
13 14.09 С 2 20 км н/о +22.4 +18.8 80 +28 +28 душно 1013.4 1010.9
14 14.09 С 1 20 км н/о +22.5 +18.9 80 +28 +28 душно 1012.9 1010.4
15 14.09 С 2 20 км н/о +22.4 +18.6 79 +28 +28 душно 1012.3 1009.8
16 14.09 В 1 20 км н/о +21.4 +18.8 85 +26 +26 душно 1012.0 1009.5
17 14.09 В 1 20 км н/о +20.9 +19.2 90 +27 +27 душно 1011.6 1009.1
18 14.09 В 1 20 км н/о +20.3 +18.8 91 +25 +25 комфорт 1011.6 1009.0
19 14.09 СВ 1 20 км н/о +20.0 +18.5 91 +25 +25 комфорт 1011.8 1009.2
20 14.09 В 1 20 км н/о +20.1 +18.6 91 +24 +24 комфорт 1011.7 1009.1
21 14.09 СВ 1 20 км н/о +20.0 +18.5 91 +24 +24 комфорт 1011.6 1009.0
22 14.09 ЮВ 1 20 км н/о +21.5 +18.9 85 +26 +26 душно 1010.9 1008.4
23 14.09 ЮВ 1 20 км н/о +23.9 +19.2 75 +29 +29 душно 1010.6 1008.1
00 15.09 ЮВ 1 20 км н/о +27.8 +18.5 57 +33 +33 очень
душно
1010.3 1007.8 +19.8
01 15.09 ЮВ 4 20 км н/о +30.1 +17.6 47 +34 +34 очень
душно
1009.4 1006.9
02 15.09 В 5 20 км н/о +30.7 +18.4 48 +36 +36 очень
душно
1008.5 1006.0
03 15.09 В 5 20 км н/о +31.1 +19.1 49 +37 +37 очень
душно
1007.8 1005.4
04 15.09 СВ 4 20 км н/о +32.3 +18.5 44 +37 +37 очень
душно
1007.1 1004.7
05 15.09 В 5 20 км н/о +33.0 +19.1 44 +38 +38 очень
душно
1006.3 1003.9
06 15.09 В 5 20 км н/о +31.3 +19.0 48 +37 +37 очень
душно
1005.9 1003.5
07 15.09 СВ 5 20 км н/о +30.7 +18.8 49 +36 +36 очень
душно
1005.7 1003.3
08 15.09 В 4 20 км н/о +30.5 +19.2 51 +36 +36 очень
душно
1005.8 1003.4
09 15.09 В 5 20 км н/о +28.9 +19.0 55 +34 +34 очень
душно
1006.0 1003.5
10 15.09 СВ 3 20 км н/о +28.4 +18.5 55 +33 +33 очень
душно
1006.6 1004.1
11 15.09 СВ 4 20 км н/о +28.5 +18.3 54 +33 +33 очень
душно
1006.7 1004.2
12 15.09 В 2 20 км н/о +27.6 +19.1 60 +33 +33 очень
душно
1006.2 1003.7 +33.4
13 15.09 В 1 20 км н/о +27.1 +19.5 63 +33 +33 очень
душно
1005.4 1002.9
14 15.09 В 3 20 км н/о +27.3 +19.4 62 +33 +33 очень
душно
1005.4 1002.9
16 15.09 В 2 20 км н/о +26.0 +19.7 68 +32 +32 очень
душно
1003.9 1001.4
17 15.09 Ю 2 3700 м дождь н/о +24.1 +21.4 85 +31 +31 очень
душно
1003.5 1001.0
18 15.09 Ю 1 20 км в посл. час дождь н/о +23.6 +22.0 91 +30 +30 очень
душно
1002.9 1000.4 2
19 15.09 ЮВ 1 20 км н/о +23.3 +21.8 91 +32 +32 очень
душно
1001.9 999.4
21 15.09 В 1 20 км слаб. дождь н/о +23.8 +21.9 89 +31 +31 очень
душно
1002.1 999.6

 

Местоположение метеостанции Мисима (Япония): широта 35.12 долгота 138.93 высота над уровнем моря 22 м.

В архиве по умолчанию представлена погода в Мисиме за последнюю неделю. Архивные данные за месяц целиком и за предыдущие месяцы, начиная с января 2011 года, Вы можете получить, выбрав интересующий диапазон дат из раскрывающегося списка и нажав кнопку "Ввод!".


*Определитесь, кто Вы:
робот инопланетянин человек

Внимание! Время в таблицах - всемирное. Для получения местного времени необходимо прибавить поправку, которая равна 9 ч.

Смотрите также архив погоды в соседних городах и на ближайших метеорологических станциях:

Погода в Аджиро (Япония) (17 км)
Погода на Фудзияме (Япония) (33 км)
Погода на Озере Кавагучи (Япония) (45 км)
Погода в Сидзуоке (Япония) (51 км)
Погода на Осиме (Япония) (58 км)
Погода в Иродзаки (Япония) (58 км)
Погода в Кофу (Япония) (70 км)
Погода в Иокогаме (Япония) (74 км)
Погода в Татеяме (Япония) (86 км)
Погода в Омаэдзаки (Япония) (88 км)

Пояснения к столбцам:

Ветер - указаны скорость ветра в м/с - средняя за 10 мин, порывы в срок и между сроками (в фигурных скобках) и направление, откуда дует ветер: С - северный, СВ - северо-восточный, В - восточный, ЮВ - юго-восточный, Ю - южный, ЮЗ - юго-западный, З - западный, СЗ - северо-западный.
Видимость - горизонтальная дальность видимости в метрах или километрах. При видимости от 1 до 10 км при отсутствии осадков обычно наблюдается дымка, при ухудшении видимости до 1 км и менее - туман. В сухую погоду видимость может ухудшаться дымом, пылью или мглою.
Явления - указаны атмосферные явления, наблюдавшиеся в срок или в последний час перед сроком; фигурными скобками обозначены явления, наблюдавшиеся между сроками (за 1-3 часа до срока); квадратными скобками обозначены град или гололедные отложения с указанием их диаметра в мм.
Облачность - указаны через наклонную черту общая и нижняя облачность в баллах и высота нижней границы облаков в метрах; квадратными скобками обозначены формы облаков: Ci - перистые, Cs - перисто-слоистые, Cc - перисто-кучевые, Ac - высококучевые, As - высокослоистые, Sc - слоисто-кучевые, Ns - слоисто-дождевые, Cu - кучевые, Cb - кучево-дождевые. Подробнее классификацию облаков см. в Атласе облаков (PDF).
T - Температура воздуха - температура, измеренная на высоте 2 м над землей.
Td - Температура точки росы - температура, при понижении до которой содержащийся в воздухе водяной пар достигнет насыщения.
f - Относительная влажность воздуха - влажноcть воздуха, измеренная на высоте 2 м над землей.
Te - Эффективная температура - температура, которую ощущает одетый по сезону человек в тени. Характеристика душности погоды. При расчете учитывается влияние влажности воздуха и скорости ветра на теплоощущения человека.
Tes - Эффективная температура на солнце - температура, которую ощущает человек, с поправкой на солнечный нагрев. Характеристика знойности погоды. Зависит от высоты солнца над горизонтом, облачности и скорости ветра. Ночью, в пасмурную погоду, а также при ветре 12 м/с и более поправка равна нулю.
P - Атмосферное давление - приведенное к уровню моря атмосферное давление.
Po - Атмосферное давление - измеренное на уровне метеостанции атмосферное давление.
Tmin - Минимальная температура - минимум температуры воздуха на высоте 2 м над землей.
Tmax - Максимальная температура - максимум температуры воздуха на высоте 2 м над землей.
R - Количество осадков - Количество выпавших осадков за период времени, мм. При наведении курсора мыши на число - период времени, за который выпало указанное количество осадков.
R24 - Количество осадков - Количество выпавших осадков за 24 часа, мм.
S - Снежный покров - Высота снежного покрова, см. При наведении курсора мыши на число - состояние снежного покрова и степень покрытия местности в баллах.